START_TIME,STEP,MOV.,M34,t_acc.,L5,t_acc.,L18,t_acc.,L14,t_acc.
1979-08-06 12:00:23.220 ,0,0,0.,12.0,0.,12.0,0.,12.0,0.,12.0
1979-08-06 12:00:35.220 ,0,0,0.,12.0,0.,12.0,0.,12.0,0.,12.0
1979-08-06 12:00:47.220 ,1,1,0.,12.0,0.,12.0,0.,12.0,0.,12.0
1979-08-06 12:00:59.220 ,1,1,0.,12.0,0.,12.0,0.,12.0,0.,12.0
1979-08-06 12:01:11.220 ,1,0,0.,12.0,0.,12.0,0.,12.0,0.,12.0
1979-08-06 12:01:23.220 ,1,0,0.,12.0,0.,12.0,0.,12.0,0.,12.0
1979-08-06 12:01:35.220 ,2,1,0.,12.0,0.,12.0,0.,12.0,0.,12.0
1979-08-06 12:01:47.220 ,2,1,0.,12.0,0.,12.0,0.,12.0,0.,12.0
1979-08-06 12:01:59.220 ,2,0,0.,12.0,0.,12.0,0.,12.0,0.,12.0
1979-08-06 12:02:11.220 ,2,0,1.,12.0,0.,12.0,0.,12.0,0.,12.0
1979-08-06 12:02:23.220 ,3,1,0.,12.0,0.,12.0,0.,12.0,0.,12.0
1979-08-06 12:02:35.220 ,3,1,0.,12.0,0.,12.0,0.,12.0,0.,12.0
1979-08-06 12:02:47.220 ,3,0,0.,12.0,0.,12.0,0.,12.0,0.,12.0
1979-08-06 12:02:59.220 ,3,0,0.,12.0,0.,12.0,0.,12.0,0.,12.0
1979-08-06 12:03:11.220 ,4,1,0.,12.0,0.,12.0,0.,12.0,0.,12.0
1979-08-06 12:03:23.220 ,4,1,0.,12.0,0.,12.0,0.,12.0,0.,12.0
1979-08-06 12:03:35.220 ,4,0,0.,12.0,0.,12.0,0.,12.0,0.,12.0
1979-08-06 12:03:47.220 ,4,0,0.,12.0,0.,12.0,0.,12.0,0.,12.0
1979-08-06 12:03:59.220 ,5,1,0.,12.0,0.,12.0,0.,12.0,0.,12.0
1979-08-06 12:04:11.220 ,5,1,0.,12.0,0.,12.0,0.,12.0,0.,12.0
1979-08-06 12:04:23.220 ,5,0,0.,12.0,0.,12.0,0.,12.0,0.,12.0
1979-08-06 12:04:35.220 ,5,0,0.,12.0,0.,12.0,0.,12.0,0.,12.0
1979-08-06 12:04:47.220 ,6,1,0.,12.0,0.,12.0,0.,12.0,0.,12.0
1979-08-06 12:04:59.220 ,6,1,0.,12.0,0.,12.0,0.,12.0,0.,12.0
1979-08-06 12:05:11.220 ,6,0,0.,12.0,0.,12.0,0.,12.0,0.,12.0
1979-08-06 12:05:23.220 ,6,0,0.,12.0,0.,12.0,0.,12.0,0.,12.0
1979-08-06 12:05:35.220 ,7,1,0.,12.0,0.,12.0,0.,12.0,0.,12.0
1979-08-06 12:05:47.220 ,7,1,0.,12.0,0.,12.0,0.,12.0,0.,12.0
1979-08-06 12:05:59.220 ,7,0,0.,12.0,0.,12.0,0.,12.0,0.,12.0
1979-08-06 12:06:11.220 ,7,0,0.,12.0,0.,12.0,0.,12.0,0.,12.0
1979-08-06 12:06:23.220 ,7,1,0.,12.0,0.,12.0,0.,12.0,0.,12.0
1979-08-06 12:06:35.220 ,7,1,0.,12.0,0.,12.0,0.,12.0,0.,12.0
1979-08-06 12:06:47.220 ,7,0,0.,12.0,0.,12.0,0.,12.0,0.,12.0
1979-08-06 12:06:59.220 ,7,0,0.,12.0,0.,12.0,0.,12.0,0.,12.0
1979-08-06 12:07:11.220 ,6,1,0.,12.0,0.,12.0,0.,12.0,0.,12.0
1979-08-06 12:07:23.220 ,6,1,0.,12.0,0.,12.0,0.,12.0,0.,12.0
1979-08-06 12:07:35.220 ,6,0,0.,12.0,0.,12.0,0.,12.0,0.,12.0
1979-08-06 12:07:47.220 ,6,0,0.,12.0,0.,12.0,0.,12.0,0.,12.0
1979-08-06 12:07:59.220 ,5,1,0.,12.0,0.,12.0,0.,12.0,0.,12.0
1979-08-06 12:08:11.220 ,5,1,0.,12.0,0.,12.0,0.,12.0,0.,12.0
1979-08-06 12:08:23.220 ,5,0,0.,12.0,0.,12.0,0.,12.0,0.,12.0
1979-08-06 12:08:35.220 ,5,0,0.,12.0,0.,12.0,0.,12.0,0.,12.0
1979-08-06 12:08:47.220 ,4,1,0.,12.0,0.,12.0,0.,12.0,0.,12.0
1979-08-06 12:08:59.220 ,4,1,0.,12.0,0.,12.0,0.,12.0,0.,12.0
1979-08-06 12:09:11.220 ,4,0,0.,12.0,0.,12.0,0.,12.0,0.,12.0
1979-08-06 12:09:23.220 ,4,0,0.,12.0,0.,12.0,0.,12.0,0.,12.0
1979-08-06 12:09:35.220 ,3,1,0.,12.0,0.,12.0,0.,12.0,0.,12.0
1979-08-06 12:09:47.220 ,3,1,0.,12.0,0.,12.0,0.,12.0,0.,12.0
1979-08-06 12:09:59.220 ,3,0,0.,12.0,0.,12.0,0.,12.0,0.,12.0
1979-08-06 12:10:11.220 ,3,0,0.,12.0,0.,12.0,0.,12.0,0.,12.0
1979-08-06 12:10:23.220 ,2,1,0.,12.0,0.,12.0,0.,12.0,0.,12.0
1979-08-06 12:10:35.220 ,2,1,0.,12.0,0.,12.0,0.,12.0,0.,12.0
1979-08-06 12:10:47.220 ,2,0,0.,12.0,0.,12.0,0.,12.0,0.,12.0
1979-08-06 12:10:59.220 ,2,0,0.,12.0,0.,12.0,0.,12.0,0.,12.0
1979-08-06 12:11:11.220 ,1,1,0.,12.0,0.,12.0,0.,12.0,0.,12.0
1979-08-06 12:11:23.220 ,1,1,0.,12.0,0.,12.0,0.,12.0,0.,12.0
1979-08-06 12:11:35.220 ,1,0,0.,12.0,0.,12.0,0.,12.0,0.,12.0
1979-08-06 12:11:47.220 ,1,0,0.,12.0,0.,12.0,0.,12.0,0.,12.0
1979-08-06 12:11:59.220 ,0,1,0.,12.0,0.,12.0,0.,12.0,0.,12.0
1979-08-06 12:12:11.220 ,0,1,0.,12.0,0.,12.0,0.,12.0,0.,12.0
1979-08-06 12:12:23.220 ,0,0,0.,12.0,0.,12.0,0.,12.0,0.,12.0
1979-08-06 12:12:35.220 ,0,0,0.,12.0,0.,12.0,0.,12.0,0.,12.0
1979-08-06 12:12:47.220 ,0,1,0.,12.0,0.,12.0,0.,12.0,0.,12.0
1979-08-06 12:12:59.220 ,0,1,0.,12.0,0.,12.0,0.,12.0,0.,12.0
1979-08-06 12:13:11.220 ,0,0,0.,12.0,0.,12.0,0.,12.0,0.,12.0
1979-08-06 12:13:23.220 ,0,0,0.,12.0,0.,12.0,0.,12.0,0.,12.0
1979-08-06 12:13:35.220 ,1,1,0.,12.0,0.,12.0,0.,12.0,0.,12.0
1979-08-06 12:13:47.220 ,1,1,0.,12.0,0.,12.0,0.,12.0,0.,12.0
1979-08-06 12:13:59.220 ,1,0,0.,12.0,0.,12.0,0.,12.0,0.,12.0
1979-08-06 12:14:11.220 ,1,0,0.,12.0,0.,12.0,0.,12.0,0.,12.0
1979-08-06 12:14:23.220 ,2,1,0.,12.0,0.,12.0,0.,12.0,0.,12.0
1979-08-06 12:14:35.220 ,2,1,0.,12.0,0.,12.0,0.,12.0,0.,12.0
1979-08-06 12:14:47.220 ,2,0,0.,12.0,0.,12.0,0.,12.0,0.,12.0
1979-08-06 12:14:59.220 ,2,0,0.,12.0,0.,12.0,0.,12.0,0.,12.0
1979-08-06 12:15:11.220 ,3,1,0.,12.0,0.,12.0,0.,12.0,0.,12.0
1979-08-06 12:15:23.220 ,3,1,0.,12.0,0.,12.0,0.,12.0,0.,12.0
1979-08-06 12:15:35.220 ,3,0,0.,12.0,0.,12.0,0.,12.0,0.,12.0
1979-08-06 12:15:47.220 ,3,0,0.,12.0,0.,12.0,0.,12.0,0.,12.0
1979-08-06 12:15:59.220 ,4,1,0.,12.0,0.,12.0,0.,12.0,0.,12.0
1979-08-06 12:16:11.220 ,4,1,0.,12.0,0.,12.0,0.,12.0,0.,12.0
1979-08-06 12:16:23.220 ,4,0,0.,12.0,0.,12.0,0.,12.0,0.,12.0
1979-08-06 12:16:35.220 ,4,0,0.,12.0,0.,12.0,0.,12.0,0.,12.0
1979-08-06 12:16:47.220 ,5,1,0.,12.0,0.,12.0,0.,12.0,0.,12.0
1979-08-06 12:16:59.220 ,5,1,0.,12.0,0.,12.0,0.,12.0,0.,12.0
1979-08-06 12:17:11.220 ,5,0,0.,12.0,0.,12.0,0.,12.0,0.,12.0
1979-08-06 12:17:23.220 ,5,0,0.,12.0,0.,12.0,0.,12.0,0.,12.0
1979-08-06 12:17:35.220 ,6,1,0.,12.0,0.,12.0,0.,12.0,0.,12.0
1979-08-06 12:17:47.220 ,6,1,0.,12.0,0.,12.0,0.,12.0,0.,12.0
1979-08-06 12:17:59.220 ,6,0,0.,12.0,0.,12.0,0.,12.0,0.,12.0
1979-08-06 12:18:11.220 ,6,0,0.,12.0,0.,12.0,0.,12.0,0.,12.0
1979-08-06 12:18:23.220 ,7,0,0.,12.0,0.,12.0,0.,12.0,0.,12.0
1979-08-06 12:18:35.220 ,7,0,0.,12.0,0.,12.0,0.,12.0,0.,12.0
1979-08-06 12:18:47.220 ,7,0,0.,12.0,0.,12.0,0.,12.0,0.,12.0
1979-08-06 12:18:59.220 ,7,0,0.,12.0,0.,12.0,0.,12.0,0.,12.0
1979-08-06 12:19:11.220 ,4,1,0.,12.0,0.,12.0,0.,12.0,0.,12.0
1979-08-06 12:19:23.220 ,4,1,0.,12.0,0.,12.0,0.,12.0,0.,12.0
1979-08-06 12:19:35.220 ,0,1,0.,12.0,0.,12.0,0.,12.0,0.,12.0
1979-08-06 12:19:47.220 ,0,1,0.,12.0,0.,12.0,0.,12.0,0.,12.0
1979-08-06 12:19:59.220 ,3,1,0.,12.0,0.,12.0,0.,12.0,0.,12.0
1979-08-06 12:20:11.220 ,3,1,0.,12.0,0.,12.0,0.,12.0,0.,12.0
1979-08-06 12:20:23.220 ,7,1,0.,12.0,0.,12.0,0.,12.0,0.,12.0
1979-08-06 12:20:35.220 ,7,1,0.,12.0,0.,12.0,0.,12.0,0.,12.0
1979-08-06 12:20:47.220 ,4,1,0.,12.0,0.,12.0,0.,12.0,0.,12.0
1979-08-06 12:20:59.220 ,4,1,0.,12.0,0.,12.0,0.,12.0,0.,12.0
1979-08-06 12:21:11.220 ,0,1,0.,12.0,0.,12.0,0.,12.0,0.,12.0
1979-08-06 12:21:23.220 ,0,1,0.,12.0,0.,12.0,0.,12.0,0.,12.0
1979-08-06 12:21:35.220 ,3,1,0.,12.0,0.,12.0,0.,12.0,0.,12.0
1979-08-06 12:21:47.220 ,3,1,0.,12.0,0.,12.0,0.,12.0,0.,12.0
1979-08-06 12:21:59.220 ,7,1,0.,12.0,0.,12.0,0.,12.0,0.,12.0
1979-08-06 12:22:11.220 ,7,1,0.,12.0,0.,12.0,0.,12.0,0.,12.0
1979-08-06 12:22:23.220 ,4,1,0.,12.0,0.,12.0,0.,12.0,0.,12.0
1979-08-06 12:22:35.220 ,4,1,0.,12.0,0.,12.0,0.,12.0,0.,12.0
1979-08-06 12:22:47.220 ,0,1,0.,12.0,0.,12.0,0.,12.0,0.,12.0
1979-08-06 12:22:59.220 ,0,1,0.,12.0,0.,12.0,0.,12.0,0.,12.0
1979-08-06 12:23:11.220 ,3,1,0.,12.0,0.,12.0,0.,12.0,0.,12.0
1979-08-06 12:23:23.220 ,3,1,0.,12.0,0.,12.0,0.,12.0,0.,12.0
1979-08-06 12:23:35.220 ,7,1,0.,12.0,0.,12.0,0.,12.0,0.,12.0
1979-08-06 12:23:47.220 ,7,1,0.,12.0,0.,12.0,0.,12.0,0.,12.0
1979-08-06 12:23:59.220 ,4,1,0.,12.0,0.,12.0,0.,12.0,0.,12.0
1979-08-06 12:24:11.220 ,4,1,0.,12.0,0.,12.0,0.,12.0,0.,12.0
1979-08-06 12:24:23.220 ,0,1,0.,12.0,0.,12.0,0.,12.0,0.,12.0
1979-08-06 12:24:35.220 ,0,1,0.,12.0,0.,12.0,0.,12.0,0.,12.0
1979-08-06 12:24:47.220 ,3,1,0.,12.0,0.,12.0,0.,12.0,0.,12.0
1979-08-06 12:24:59.220 ,3,1,0.,12.0,0.,12.0,0.,12.0,0.,12.0
1979-08-06 12:25:11.220 ,7,1,0.,12.0,0.,12.0,0.,12.0,0.,12.0
1979-08-06 12:25:23.220 ,7,1,0.,12.0,0.,12.0,0.,12.0,0.,12.0
1979-08-06 12:25:35.220 ,4,1,0.,12.0,0.,12.0,0.,12.0,0.,12.0
1979-08-06 12:25:47.220 ,4,1,0.,12.0,0.,12.0,0.,12.0,0.,12.0
1979-08-06 12:25:59.220 ,0,1,0.,12.0,0.,12.0,0.,12.0,0.,12.0
1979-08-06 12:26:11.220 ,0,1,0.,12.0,0.,12.0,0.,12.0,0.,12.0
1979-08-06 12:26:23.220 ,3,1,0.,12.0,0.,12.0,0.,12.0,0.,12.0
1979-08-06 12:26:35.220 ,3,1,0.,12.0,0.,12.0,0.,12.0,0.,12.0
1979-08-06 12:26:47.220 ,7,1,0.,12.0,0.,12.0,0.,12.0,0.,12.0
1979-08-06 12:26:59.220 ,7,1,0.,12.0,0.,12.0,0.,12.0,0.,12.0
1979-08-06 12:27:11.220 ,4,1,0.,12.0,0.,12.0,0.,12.0,0.,12.0
1979-08-06 12:27:23.220 ,4,1,0.,12.0,0.,12.0,0.,12.0,0.,12.0
1979-08-06 12:27:35.220 ,0,1,0.,12.0,0.,12.0,0.,12.0,0.,12.0
1979-08-06 12:27:47.220 ,0,1,0.,12.0,0.,12.0,0.,12.0,0.,12.0
1979-08-06 12:27:59.220 ,3,1,0.,12.0,0.,12.0,0.,12.0,0.,12.0
1979-08-06 12:28:11.220 ,3,1,0.,12.0,0.,12.0,0.,12.0,0.,12.0
1979-08-06 12:28:23.220 ,7,1,0.,12.0,0.,12.0,0.,12.0,0.,12.0
1979-08-06 12:28:35.220 ,7,1,0.,12.0,0.,12.0,0.,12.0,0.,12.0
1979-08-06 12:28:47.220 ,4,1,0.,12.0,0.,12.0,0.,12.0,0.,12.0
1979-08-06 12:28:59.220 ,4,1,0.,12.0,0.,12.0,0.,12.0,0.,12.0
1979-08-06 12:29:11.220 ,0,1,0.,12.0,0.,12.0,0.,12.0,0.,12.0
1979-08-06 12:29:23.220 ,0,1,0.,12.0,0.,12.0,0.,12.0,0.,12.0
1979-08-06 12:29:35.220 ,0,0,0.,12.0,0.,12.0,0.,12.0,0.,12.0
1979-08-06 12:29:47.220 ,0,0,0.,12.0,0.,12.0,0.,12.0,0.,12.0
1979-08-06 12:29:59.220 ,0,0,0.,12.0,0.,12.0,0.,12.0,0.,12.0
1979-08-06 12:30:11.220 ,0,0,0.,12.0,0.,12.0,0.,12.0,0.,12.0
1979-08-06 12:30:23.220 ,5,1,0.,12.0,0.,12.0,0.,12.0,0.,12.0
1979-08-06 12:30:35.220 ,5,1,0.,12.0,0.,12.0,0.,12.0,0.,12.0
1979-08-06 12:30:47.220 ,5,0,0.,12.0,0.,12.0,0.,12.0,0.,12.0
1979-08-06 12:30:59.220 ,5,0,0.,12.0,0.,12.0,0.,12.0,0.,12.0
1979-08-06 12:31:11.220 ,4,1,0.,12.0,0.,12.0,0.,12.0,0.,12.0
1979-08-06 12:31:23.220 ,4,1,0.,12.0,0.,12.0,0.,12.0,0.,12.0
1979-08-06 12:31:35.220 ,4,0,0.,12.0,0.,12.0,0.,12.0,0.,12.0
1979-08-06 12:31:47.220 ,4,0,0.,12.0,0.,12.0,0.,12.0,0.,12.0
1979-08-06 12:31:59.220 ,3,1,0.,12.0,0.,12.0,0.,12.0,0.,12.0
1979-08-06 12:32:11.220 ,3,1,0.,12.0,0.,12.0,0.,12.0,0.,12.0
1979-08-06 12:32:23.220 ,3,0,0.,12.0,0.,12.0,0.,12.0,0.,12.0
1979-08-06 12:32:35.220 ,3,0,0.,12.0,0.,12.0,0.,12.0,0.,12.0
1979-08-06 12:32:47.220 ,2,1,0.,12.0,0.,12.0,0.,12.0,0.,12.0
1979-08-06 12:32:59.220 ,2,1,0.,12.0,0.,12.0,0.,12.0,0.,12.0
1979-08-06 12:33:11.220 ,2,0,0.,12.0,0.,12.0,0.,12.0,0.,12.0
1979-08-06 12:33:23.220 ,2,0,0.,12.0,0.,12.0,0.,12.0,0.,12.0
1979-08-06 12:33:35.220 ,0,0,0.,12.0,0.,12.0,0.,12.0,0.,12.0
1979-08-06 12:33:47.220 ,0,0,,0,,0,,0,,0
1979-08-06 12:33:59.220 ,0,0,,0,,0,,0,,0
1979-08-06 12:34:11.220 ,0,0,,0,,0,,0,,0
1979-08-06 12:34:23.220 ,0,1,0.,12.0,0.,12.0,0.,12.0,0.,12.0
1979-08-06 12:34:35.220 ,0,1,0.,12.0,0.,12.0,0.,12.0,0.,12.0
1979-08-06 12:34:47.220 ,0,0,0.,12.0,0.,12.0,0.,12.0,0.,12.0
1979-08-06 12:34:59.220 ,0,0,0.,12.0,0.,12.0,0.,12.0,0.,12.0
1979-08-06 12:35:11.220 ,0,1,0.,12.0,0.,12.0,0.,12.0,0.,12.0
1979-08-06 12:35:23.220 ,0,1,0.,12.0,0.,12.0,0.,12.0,0.,12.0
1979-08-06 12:35:35.220 ,0,0,0.,12.0,0.,12.0,0.,12.0,0.,12.0
1979-08-06 12:35:47.220 ,0,0,0.,12.0,0.,12.0,0.,12.0,0.,12.0
1979-08-06 12:35:59.220 ,1,1,0.,12.0,0.,12.0,0.,12.0,0.,12.0
1979-08-06 12:36:11.220 ,1,1,0.,12.0,0.,12.0,0.,12.0,0.,12.0
1979-08-06 12:36:23.220 ,1,0,0.,12.0,0.,12.0,0.,12.0,0.,12.0
1979-08-06 12:36:35.220 ,1,0,0.,12.0,0.,12.0,0.,12.0,0.,12.0
1979-08-06 12:36:47.220 ,2,1,0.,12.0,0.,12.0,0.,12.0,0.,12.0
1979-08-06 12:36:59.220 ,2,1,0.,12.0,0.,12.0,0.,12.0,0.,12.0
1979-08-06 12:37:11.220 ,2,0,0.,12.0,0.,12.0,0.,12.0,0.,12.0
1979-08-06 12:37:23.220 ,2,0,0.,12.0,0.,12.0,0.,12.0,0.,12.0
1979-08-06 12:37:35.220 ,3,1,0.,12.0,0.,12.0,0.,12.0,0.,12.0
1979-08-06 12:37:47.220 ,3,1,0.,12.0,0.,12.0,0.,12.0,0.,12.0
1979-08-06 12:37:59.220 ,3,0,0.,12.0,0.,12.0,0.,12.0,0.,12.0
1979-08-06 12:38:11.220 ,3,0,0.,12.0,0.,12.0,0.,12.0,0.,12.0
1979-08-06 12:38:23.220 ,4,1,0.,12.0,0.,12.0,0.,12.0,0.,12.0
1979-08-06 12:38:35.220 ,4,1,0.,12.0,0.,12.0,0.,12.0,0.,12.0
1979-08-06 12:38:47.220 ,4,0,0.,12.0,0.,12.0,0.,12.0,0.,12.0
1979-08-06 12:38:59.220 ,4,0,0.,12.0,0.,12.0,0.,12.0,0.,12.0
1979-08-06 12:39:11.220 ,5,1,0.,12.0,0.,12.0,0.,12.0,0.,12.0
1979-08-06 12:39:23.220 ,5,1,0.,12.0,0.,12.0,0.,12.0,0.,12.0
1979-08-06 12:39:35.220 ,5,0,0.,12.0,0.,12.0,0.,12.0,0.,12.0
1979-08-06 12:39:47.220 ,5,0,0.,12.0,0.,12.0,0.,12.0,0.,12.0
1979-08-06 12:39:59.220 ,6,1,0.,12.0,0.,12.0,0.,12.0,0.,12.0
1979-08-06 12:40:11.220 ,6,1,0.,12.0,0.,12.0,0.,12.0,0.,12.0
1979-08-06 12:40:23.220 ,6,0,0.,12.0,0.,12.0,0.,12.0,0.,12.0
1979-08-06 12:40:35.220 ,6,0,0.,12.0,0.,12.0,0.,12.0,0.,12.0
1979-08-06 12:40:47.220 ,7,1,0.,12.0,0.,12.0,0.,12.0,0.,12.0
1979-08-06 12:40:59.220 ,7,1,0.,12.0,0.,12.0,0.,12.0,0.,12.0
1979-08-06 12:41:11.220 ,7,0,0.,12.0,0.,12.0,0.,12.0,0.,12.0
1979-08-06 12:41:23.220 ,7,0,0.,12.0,0.,12.0,0.,12.0,0.,12.0
1979-08-06 12:41:35.220 ,7,1,0.,12.0,0.,12.0,1.,12.0,0.,12.0
1979-08-06 12:41:47.220 ,7,1,0.,12.0,0.,12.0,0.,12.0,0.,12.0
1979-08-06 12:41:59.220 ,7,0,0.,12.0,0.,12.0,0.,12.0,0.,12.0
1979-08-06 12:42:11.220 ,7,0,0.,12.0,0.,12.0,0.,12.0,0.,12.0
1979-08-06 12:42:23.220 ,6,1,0.,12.0,0.,12.0,0.,12.0,0.,12.0
1979-08-06 12:42:35.220 ,6,1,0.,12.0,0.,12.0,0.,12.0,0.,12.0
1979-08-06 12:42:47.220 ,6,0,0.,12.0,0.,12.0,0.,12.0,0.,12.0
1979-08-06 12:42:59.220 ,6,0,0.,12.0,0.,12.0,0.,12.0,0.,12.0
1979-08-06 12:43:11.220 ,5,1,0.,12.0,0.,12.0,0.,12.0,0.,12.0
1979-08-06 12:43:23.220 ,5,1,0.,12.0,0.,12.0,0.,12.0,0.,12.0
1979-08-06 12:43:35.220 ,5,0,0.,12.0,0.,12.0,0.,12.0,0.,12.0
1979-08-06 12:43:47.220 ,5,0,0.,12.0,0.,12.0,0.,12.0,0.,12.0
1979-08-06 12:43:59.220 ,4,1,0.,12.0,0.,12.0,0.,12.0,0.,12.0
1979-08-06 12:44:11.220 ,4,1,0.,12.0,0.,12.0,0.,12.0,0.,12.0
1979-08-06 12:44:23.220 ,4,0,0.,12.0,0.,12.0,0.,12.0,0.,12.0
1979-08-06 12:44:35.220 ,4,0,0.,12.0,0.,12.0,0.,12.0,0.,12.0
1979-08-06 12:44:47.220 ,3,1,0.,12.0,0.,12.0,0.,12.0,0.,12.0
1979-08-06 12:44:59.220 ,3,1,0.,12.0,0.,12.0,0.,12.0,0.,12.0
1979-08-06 12:45:11.220 ,3,0,0.,12.0,0.,12.0,0.,12.0,0.,12.0
1979-08-06 12:45:23.220 ,3,0,0.,12.0,0.,12.0,0.,12.0,0.,12.0
1979-08-06 12:45:35.220 ,2,1,0.,12.0,0.,12.0,0.,12.0,0.,12.0
1979-08-06 12:45:47.220 ,2,1,0.,12.0,0.,12.0,0.,12.0,0.,12.0
1979-08-06 12:45:59.220 ,2,0,0.,12.0,0.,12.0,0.,12.0,0.,12.0
1979-08-06 12:46:11.220 ,2,0,0.,12.0,0.,12.0,0.,12.0,0.,12.0
1979-08-06 12:46:23.220 ,1,1,0.,12.0,0.,12.0,0.,12.0,0.,12.0
1979-08-06 12:46:35.220 ,1,1,0.,12.0,0.,12.0,0.,12.0,0.,12.0
1979-08-06 12:46:47.220 ,1,0,0.,12.0,0.,12.0,0.,12.0,0.,12.0
1979-08-06 12:46:59.220 ,1,0,0.,12.0,0.,12.0,0.,12.0,0.,12.0
1979-08-06 12:47:11.220 ,0,1,0.,12.0,0.,12.0,0.,12.0,0.,12.0
1979-08-06 12:47:23.220 ,0,1,0.,12.0,0.,12.0,0.,12.0,0.,12.0
1979-08-06 12:47:35.220 ,0,0,0.,12.0,0.,12.0,0.,12.0,0.,12.0
1979-08-06 12:47:47.220 ,0,0,0.,12.0,0.,12.0,0.,12.0,0.,12.0
1979-08-06 12:47:59.220 ,0,1,0.,12.0,0.,12.0,0.,12.0,0.,12.0
1979-08-06 12:48:11.220 ,0,1,0.,12.0,0.,12.0,0.,12.0,0.,12.0
1979-08-06 12:48:23.220 ,0,0,0.,12.0,0.,12.0,0.,12.0,0.,12.0
1979-08-06 12:48:35.220 ,0,0,0.,12.0,0.,12.0,0.,12.0,0.,12.0
1979-08-06 12:48:47.220 ,1,1,0.,12.0,0.,12.0,0.,12.0,0.,12.0
1979-08-06 12:48:59.220 ,1,1,0.,12.0,0.,12.0,0.,12.0,0.,12.0
1979-08-06 12:49:11.220 ,1,0,0.,12.0,0.,12.0,0.,12.0,0.,12.0
1979-08-06 12:49:23.220 ,1,0,0.,12.0,0.,12.0,0.,12.0,0.,12.0
1979-08-06 12:49:35.220 ,2,1,0.,12.0,0.,12.0,0.,12.0,0.,12.0
1979-08-06 12:49:47.220 ,2,1,0.,12.0,0.,12.0,0.,12.0,0.,12.0
1979-08-06 12:49:59.220 ,2,0,0.,12.0,0.,12.0,0.,12.0,0.,12.0
1979-08-06 12:50:11.220 ,2,0,0.,12.0,0.,12.0,0.,12.0,0.,12.0
1979-08-06 12:50:23.220 ,3,1,0.,12.0,0.,12.0,0.,12.0,0.,12.0
1979-08-06 12:50:35.220 ,3,1,0.,12.0,0.,12.0,0.,12.0,0.,12.0
1979-08-06 12:50:47.220 ,3,0,0.,12.0,0.,12.0,0.,12.0,0.,12.0
1979-08-06 12:50:59.220 ,3,0,0.,12.0,0.,12.0,0.,12.0,0.,12.0
1979-08-06 12:51:11.220 ,4,1,0.,12.0,0.,12.0,0.,12.0,0.,12.0
1979-08-06 12:51:23.220 ,4,1,0.,12.0,0.,12.0,0.,12.0,0.,12.0
1979-08-06 12:51:35.220 ,4,0,0.,12.0,0.,12.0,0.,12.0,0.,12.0
1979-08-06 12:51:47.220 ,4,0,0.,12.0,0.,12.0,0.,12.0,0.,12.0
1979-08-06 12:51:59.220 ,5,1,0.,12.0,0.,12.0,0.,12.0,0.,12.0
1979-08-06 12:52:11.220 ,5,1,0.,12.0,0.,12.0,0.,12.0,0.,12.0
1979-08-06 12:52:23.220 ,5,0,0.,12.0,0.,12.0,0.,12.0,0.,12.0
1979-08-06 12:52:35.220 ,5,0,0.,12.0,0.,12.0,0.,12.0,0.,12.0
1979-08-06 12:52:47.220 ,6,1,0.,12.0,0.,12.0,0.,12.0,0.,12.0
1979-08-06 12:52:59.220 ,6,1,0.,12.0,0.,12.0,0.,12.0,0.,12.0
1979-08-06 12:53:11.220 ,6,0,0.,12.0,0.,12.0,0.,12.0,0.,12.0
1979-08-06 12:53:23.220 ,6,0,0.,12.0,0.,12.0,0.,12.0,0.,12.0
1979-08-06 12:53:35.220 ,7,1,0.,12.0,0.,12.0,0.,12.0,0.,12.0
1979-08-06 12:53:47.220 ,7,1,0.,12.0,0.,12.0,0.,12.0,0.,12.0
1979-08-06 12:53:59.220 ,7,0,0.,12.0,0.,12.0,0.,12.0,0.,12.0
1979-08-06 12:54:11.220 ,7,0,0.,12.0,0.,12.0,0.,12.0,0.,12.0
1979-08-06 12:54:23.220 ,7,1,0.,12.0,0.,12.0,0.,12.0,0.,12.0
1979-08-06 12:54:35.220 ,7,1,0.,12.0,0.,12.0,0.,12.0,0.,12.0
1979-08-06 12:54:47.220 ,7,0,0.,12.0,0.,12.0,0.,12.0,0.,12.0
1979-08-06 12:54:59.220 ,7,0,0.,12.0,0.,12.0,0.,12.0,0.,12.0
1979-08-06 12:55:11.220 ,6,1,0.,12.0,0.,12.0,0.,12.0,0.,12.0
1979-08-06 12:55:23.220 ,6,1,0.,12.0,0.,12.0,0.,12.0,0.,12.0
1979-08-06 12:55:35.220 ,6,0,0.,12.0,0.,12.0,0.,12.0,0.,12.0
1979-08-06 12:55:47.220 ,6,0,0.,12.0,0.,12.0,0.,12.0,0.,12.0
1979-08-06 12:55:59.220 ,5,1,0.,12.0,0.,12.0,0.,12.0,0.,12.0
1979-08-06 12:56:11.220 ,5,1,0.,12.0,0.,12.0,0.,12.0,0.,12.0
1979-08-06 12:56:23.220 ,5,0,0.,12.0,0.,12.0,0.,12.0,0.,12.0
1979-08-06 12:56:35.220 ,5,0,0.,12.0,0.,12.0,0.,12.0,0.,12.0
1979-08-06 12:56:47.220 ,4,1,0.,12.0,0.,12.0,0.,12.0,0.,12.0
1979-08-06 12:56:59.220 ,4,1,0.,12.0,0.,12.0,0.,12.0,0.,12.0
1979-08-06 12:57:11.220 ,4,0,0.,12.0,0.,12.0,0.,12.0,0.,12.0
1979-08-06 12:57:23.220 ,4,0,0.,12.0,0.,12.0,0.,12.0,0.,12.0
1979-08-06 12:57:35.220 ,3,1,0.,12.0,0.,12.0,0.,12.0,0.,12.0
1979-08-06 12:57:47.220 ,3,1,0.,12.0,0.,12.0,0.,12.0,0.,12.0
1979-08-06 12:57:59.220 ,3,0,0.,12.0,0.,12.0,0.,12.0,0.,12.0
1979-08-06 12:58:11.220 ,3,0,0.,12.0,0.,12.0,0.,12.0,0.,12.0
1979-08-06 12:58:23.220 ,2,1,0.,12.0,0.,12.0,0.,12.0,0.,12.0
1979-08-06 12:58:35.220 ,2,1,0.,12.0,0.,12.0,0.,12.0,0.,12.0
1979-08-06 12:58:47.220 ,2,0,0.,12.0,0.,12.0,0.,12.0,0.,12.0
1979-08-06 12:58:59.220 ,2,0,0.,12.0,0.,12.0,0.,12.0,0.,12.0
1979-08-06 12:59:11.220 ,1,1,0.,12.0,0.,12.0,0.,12.0,0.,12.0
1979-08-06 12:59:23.220 ,1,1,0.,12.0,0.,12.0,0.,12.0,0.,12.0
1979-08-06 12:59:35.220 ,1,0,0.,12.0,0.,12.0,0.,12.0,0.,12.0
1979-08-06 12:59:47.220 ,1,0,0.,12.0,0.,12.0,0.,12.0,0.,12.0
1979-08-06 12:59:59.220 ,0,1,0.,12.0,0.,12.0,0.,12.0,0.,12.0
1979-08-06 13:00:11.220 ,0,1,0.,12.0,0.,12.0,0.,12.0,0.,12.0
1979-08-06 13:00:23.220 ,0,0,0.,12.0,0.,12.0,0.,12.0,0.,12.0
1979-08-06 13:00:35.220 ,0,0,0.,12.0,0.,12.0,0.,12.0,0.,12.0
1979-08-06 13:00:47.220 ,0,1,0.,12.0,0.,12.0,0.,12.0,0.,12.0
1979-08-06 13:00:59.220 ,0,1,0.,12.0,0.,12.0,0.,12.0,0.,12.0
1979-08-06 13:01:11.220 ,0,0,0.,12.0,0.,12.0,0.,12.0,0.,12.0
1979-08-06 13:01:23.220 ,0,0,0.,12.0,0.,12.0,0.,12.0,0.,12.0
1979-08-06 13:01:35.220 ,1,1,0.,12.0,0.,12.0,0.,12.0,0.,12.0
1979-08-06 13:01:47.220 ,1,1,0.,12.0,0.,12.0,0.,12.0,0.,12.0
1979-08-06 13:01:59.220 ,1,0,0.,12.0,0.,12.0,0.,12.0,0.,12.0
1979-08-06 13:02:11.220 ,1,0,0.,12.0,0.,12.0,0.,12.0,0.,12.0
1979-08-06 13:02:23.220 ,2,1,0.,12.0,0.,12.0,0.,12.0,0.,12.0
1979-08-06 13:02:35.220 ,2,1,0.,12.0,0.,12.0,0.,12.0,0.,12.0
1979-08-06 13:02:47.220 ,2,0,0.,12.0,0.,12.0,0.,12.0,0.,12.0
1979-08-06 13:02:59.220 ,2,0,0.,12.0,0.,12.0,0.,12.0,0.,12.0
1979-08-06 13:03:11.220 ,3,1,0.,12.0,0.,12.0,0.,12.0,0.,12.0
1979-08-06 13:03:23.220 ,3,1,0.,12.0,0.,12.0,0.,12.0,0.,12.0
1979-08-06 13:03:35.220 ,3,0,0.,12.0,0.,12.0,0.,12.0,0.,12.0
1979-08-06 13:03:47.220 ,3,0,0.,12.0,0.,12.0,0.,12.0,0.,12.0
1979-08-06 13:03:59.220 ,4,1,0.,12.0,0.,12.0,0.,12.0,0.,12.0
1979-08-06 13:04:11.220 ,4,1,0.,12.0,0.,12.0,0.,12.0,0.,12.0
1979-08-06 13:04:23.220 ,4,0,0.,12.0,0.,12.0,0.,12.0,0.,12.0
1979-08-06 13:04:35.220 ,4,0,0.,12.0,0.,12.0,0.,12.0,0.,12.0
1979-08-06 13:04:47.220 ,5,1,0.,12.0,0.,12.0,0.,12.0,0.,12.0
1979-08-06 13:04:59.220 ,5,1,0.,12.0,0.,12.0,0.,12.0,0.,12.0
1979-08-06 13:05:11.220 ,5,0,0.,12.0,0.,12.0,0.,12.0,0.,12.0
1979-08-06 13:05:23.220 ,5,0,0.,12.0,0.,12.0,0.,12.0,0.,12.0
1979-08-06 13:05:35.220 ,6,1,0.,12.0,0.,12.0,0.,12.0,0.,12.0
1979-08-06 13:05:47.220 ,6,1,0.,12.0,0.,12.0,0.,12.0,0.,12.0
1979-08-06 13:05:59.220 ,6,0,0.,12.0,0.,12.0,0.,12.0,0.,12.0
1979-08-06 13:06:11.220 ,6,0,0.,12.0,0.,12.0,0.,12.0,0.,12.0
1979-08-06 13:06:23.220 ,7,0,0.,12.0,0.,12.0,0.,12.0,0.,12.0
1979-08-06 13:06:35.220 ,7,0,0.,12.0,0.,12.0,0.,12.0,0.,12.0
1979-08-06 13:06:47.220 ,7,0,0.,12.0,0.,12.0,0.,12.0,0.,12.0
1979-08-06 13:06:59.220 ,7,0,0.,12.0,0.,12.0,0.,12.0,0.,12.0
1979-08-06 13:07:11.220 ,4,1,0.,12.0,0.,12.0,0.,12.0,0.,12.0
1979-08-06 13:07:23.220 ,4,1,0.,12.0,0.,12.0,0.,12.0,0.,12.0
1979-08-06 13:07:35.220 ,0,1,0.,12.0,0.,12.0,0.,12.0,0.,12.0
1979-08-06 13:07:47.220 ,0,1,0.,12.0,0.,12.0,0.,12.0,0.,12.0
1979-08-06 13:07:59.220 ,0,0,0.,12.0,0.,12.0,0.,12.0,0.,12.0
1979-08-06 13:08:11.220 ,0,0,0.,12.0,0.,12.0,0.,12.0,0.,12.0
1979-08-06 13:08:23.220 ,0,0,,0,,0,,0,,0
1979-08-06 13:08:35.220 ,0,0,,0,,0,,0,,0
1979-08-06 13:09:27.420 ,0,0,,0,,0,,0,,0
1979-08-06 13:09:39.420 ,0,0,,0,,0,,0,,0
1979-08-06 13:09:35.220 ,3,1,0.,12.0,0.,12.0,0.,12.0,0.,12.0
1979-08-06 13:09:47.220 ,3,1,0.,12.0,0.,12.0,0.,12.0,0.,12.0
1979-08-06 13:09:59.220 ,7,1,0.,12.0,0.,12.0,0.,12.0,0.,12.0
1979-08-06 13:10:11.220 ,7,1,0.,12.0,0.,12.0,0.,12.0,0.,12.0
1979-08-06 13:10:23.220 ,4,1,0.,12.0,0.,12.0,0.,12.0,0.,12.0
1979-08-06 13:10:35.220 ,4,1,0.,12.0,0.,12.0,0.,12.0,0.,12.0
1979-08-06 13:10:47.220 ,0,1,0.,12.0,0.,12.0,0.,12.0,0.,12.0
1979-08-06 13:10:59.220 ,0,1,0.,12.0,0.,12.0,0.,12.0,0.,12.0
1979-08-06 13:11:11.220 ,3,1,0.,12.0,0.,12.0,0.,12.0,0.,12.0
1979-08-06 13:11:23.220 ,3,1,0.,12.0,0.,12.0,0.,12.0,0.,12.0
1979-08-06 13:11:35.220 ,7,1,0.,12.0,0.,12.0,0.,12.0,0.,12.0
1979-08-06 13:11:47.220 ,7,1,0.,12.0,0.,12.0,0.,12.0,0.,12.0
1979-08-06 13:11:59.220 ,4,1,0.,12.0,0.,12.0,0.,12.0,0.,12.0
1979-08-06 13:12:11.220 ,4,1,0.,12.0,0.,12.0,0.,12.0,0.,12.0
1979-08-06 13:12:23.220 ,0,1,0.,12.0,0.,12.0,0.,12.0,0.,12.0
1979-08-06 13:12:35.220 ,0,1,0.,12.0,0.,12.0,0.,12.0,0.,12.0
1979-08-06 13:12:47.220 ,3,1,0.,12.0,0.,12.0,0.,12.0,0.,12.0
1979-08-06 13:12:59.220 ,3,1,0.,12.0,0.,12.0,0.,12.0,0.,12.0
1979-08-06 13:13:11.220 ,7,1,0.,12.0,0.,12.0,0.,12.0,0.,12.0
1979-08-06 13:13:23.220 ,7,1,0.,12.0,0.,12.0,0.,12.0,0.,12.0
1979-08-06 13:13:35.220 ,4,1,0.,12.0,0.,12.0,0.,12.0,0.,12.0
1979-08-06 13:13:47.220 ,4,1,0.,12.0,0.,12.0,0.,12.0,0.,12.0
1979-08-06 13:13:59.220 ,0,1,0.,12.0,0.,12.0,0.,12.0,0.,12.0
1979-08-06 13:14:11.220 ,0,1,0.,12.0,0.,12.0,0.,12.0,0.,12.0
1979-08-06 13:14:23.220 ,3,1,0.,12.0,0.,12.0,0.,12.0,0.,12.0
1979-08-06 13:14:35.220 ,3,1,0.,12.0,0.,12.0,0.,12.0,0.,12.0
1979-08-06 13:14:47.220 ,7,1,0.,12.0,0.,12.0,0.,12.0,0.,12.0
1979-08-06 13:14:59.220 ,7,1,0.,12.0,0.,12.0,0.,12.0,0.,12.0
1979-08-06 13:15:11.220 ,4,1,0.,12.0,0.,12.0,0.,12.0,0.,12.0
1979-08-06 13:15:23.220 ,4,1,0.,12.0,0.,12.0,0.,12.0,0.,12.0
1979-08-06 13:15:35.220 ,0,1,0.,12.0,0.,12.0,0.,12.0,0.,12.0
1979-08-06 13:15:47.220 ,0,1,0.,12.0,0.,12.0,0.,12.0,0.,12.0
1979-08-06 13:15:59.220 ,3,1,0.,12.0,0.,12.0,0.,12.0,0.,12.0
1979-08-06 13:16:11.220 ,3,1,0.,12.0,0.,12.0,0.,12.0,0.,12.0
1979-08-06 13:16:23.220 ,7,1,0.,12.0,0.,12.0,0.,12.0,0.,12.0
1979-08-06 13:16:35.220 ,7,1,0.,12.0,0.,12.0,0.,12.0,0.,12.0
1979-08-06 13:16:47.220 ,4,1,0.,12.0,0.,12.0,0.,12.0,0.,12.0
1979-08-06 13:16:59.220 ,4,1,0.,12.0,0.,12.0,0.,12.0,0.,12.0
1979-08-06 13:17:11.220 ,0,1,0.,12.0,0.,12.0,0.,12.0,0.,12.0
1979-08-06 13:17:23.220 ,0,1,0.,12.0,0.,12.0,0.,12.0,0.,12.0
1979-08-06 13:17:35.220 ,0,0,0.,12.0,0.,12.0,0.,12.0,0.,12.0
1979-08-06 13:17:47.220 ,0,0,0.,12.0,0.,12.0,0.,12.0,0.,12.0
1979-08-06 13:17:59.220 ,0,0,0.,12.0,0.,12.0,0.,12.0,0.,12.0
1979-08-06 13:18:11.220 ,0,0,0.,12.0,0.,12.0,0.,12.0,0.,12.0